This is the latest recevied weather packets stored in our database for station/object AE5PL. If no packets are shown the sender has not sent any weather packets the latest 1 day(s).
| Time | Temp. | Humidity | Pressure | Rain* | Wind** | Luminosity | Snow |
|---|---|---|---|---|---|---|---|
| 1778025750 | 24.44° C | 68% | 1004.4 hPa | - | 3.13 m/s, 315° | - | - |
| 1778025449 | 24.44° C | 68% | 1004.3 hPa | - | 4.92 m/s, 315° | - | - |
| 1778025149 | 25° C | 67% | 1004.3 hPa | - | 5.36 m/s, 337° | - | - |
| 1778024850 | 25.56° C | 65% | 1004.2 hPa | - | 3.13 m/s, 315° | - | - |
| 1778024550 | 26.11° C | 64% | 1004.1 hPa | - | 2.24 m/s, 315° | - | - |
| 1778024250 | 26.11° C | 63% | 1004 hPa | - | 2.68 m/s, 315° | - | - |
| 1778023950 | 26.67° C | 62% | 1004.1 hPa | - | 4.92 m/s, 315° | - | - |
| 1778023650 | 26.67° C | 61% | 1004 hPa | - | 4.47 m/s, 337° | - | - |
| 1778023349 | 27.22° C | 60% | 1003.7 hPa | - | 4.92 m/s, 315° | - | - |
| 1778023050 | 27.78° C | 57% | 1003.6 hPa | - | 4.92 m/s, 315° | - | - |
| 1778022750 | 28.33° C | 55% | 1003.4 hPa | - | 2.68 m/s, 315° | - | - |
| 1778022449 | 28.33° C | 54% | 1003.2 hPa | - | 2.68 m/s, 315° | - | - |
| 1778022150 | 28.33° C | 54% | 1003 hPa | - | 1.79 m/s, 315° | - | - |
| 1778021849 | 28.89° C | 52% | 1003.1 hPa | - | 2.68 m/s, 315° | - | - |
| 1778021549 | 28.89° C | 52% | 1003.2 hPa | - | 2.24 m/s, 315° | - | - |
| 1778021249 | 28.89° C | 51% | 1003.3 hPa | - | 2.24 m/s, 315° | - | - |
| 1778020949 | 29.44° C | 51% | 1003.1 hPa | - | 2.68 m/s, 315° | - | - |
| 1778020649 | 30° C | 50% | 1002.9 hPa | - | 3.13 m/s, 315° | - | - |
| 1778020349 | 31.11° C | 48% | 1002.8 hPa | - | 2.24 m/s, 315° | - | - |
| 1778020049 | 32.22° C | 53% | 1002.4 hPa | - | 0 m/s | - | - |
| 1778019749 | 31.67° C | 55% | 1002.4 hPa | - | 0 m/s | - | - |
| 1778019449 | 31.67° C | 55% | 1002.5 hPa | - | 0.89 m/s, 270° | - | - |
| 1778019149 | 31.11° C | 55% | 1002.4 hPa | - | 0.89 m/s, 270° | - | - |
| 1778018849 | 31.11° C | 54% | 1002.4 hPa | - | 0.45 m/s, 247° | - | - |
| 1778018549 | 31.11° C | 55% | 1002.7 hPa | - | 0.45 m/s, 225° | - | - |
* Rain since midnight (hover to see other rain measurements)
** Current wind speed in m/s (hover to see current wind gust speed)